Year,Month,Day,Hour,Minute,Value (Times are PST for temperature in C)
2017,08,08,00,00,18.30
2017,08,08,00,01,18.30
2017,08,08,00,02,18.30
2017,08,08,00,03,18.30
2017,08,08,00,04,18.30
2017,08,08,00,05,18.30
2017,08,08,00,06,18.30
2017,08,08,00,07,18.30
2017,08,08,00,08,18.30
2017,08,08,00,09,18.20
2017,08,08,00,10,18.20
2017,08,08,00,11,18.20
2017,08,08,00,12,18.20
2017,08,08,00,13,18.20
2017,08,08,00,14,18.20
2017,08,08,00,15,18.20
2017,08,08,00,16,18.20
2017,08,08,00,17,18.20
2017,08,08,00,18,18.20
2017,08,08,00,19,18.20
2017,08,08,00,20,18.20
2017,08,08,00,21,18.20
2017,08,08,00,22,18.20
2017,08,08,00,23,18.20
2017,08,08,00,24,18.20
2017,08,08,00,25,18.20
2017,08,08,00,26,18.20
2017,08,08,00,27,18.20
2017,08,08,00,28,18.20
2017,08,08,00,29,18.20
2017,08,08,00,30,18.20
2017,08,08,00,31,18.20
2017,08,08,00,32,18.20
2017,08,08,00,33,18.20
2017,08,08,00,34,18.20
2017,08,08,00,35,18.20
2017,08,08,00,36,18.20
2017,08,08,00,37,18.20
2017,08,08,00,38,18.20
2017,08,08,00,39,18.20
2017,08,08,00,40,18.20
2017,08,08,00,41,18.20
2017,08,08,00,42,18.20
2017,08,08,00,43,18.20
2017,08,08,00,44,18.20
2017,08,08,00,45,18.20
2017,08,08,00,46,18.20
2017,08,08,00,47,18.20
2017,08,08,00,48,18.20
2017,08,08,00,49,18.20
2017,08,08,00,50,18.20
2017,08,08,00,51,18.20
2017,08,08,00,52,18.10
2017,08,08,00,53,18.10
2017,08,08,00,54,18.10
2017,08,08,00,55,18.10
2017,08,08,00,56,18.10
2017,08,08,00,57,18.10
2017,08,08,00,58,18.10
2017,08,08,00,59,18.10
2017,08,08,01,00,18.10
2017,08,08,01,01,18.10
2017,08,08,01,02,18.10
2017,08,08,01,03,18.10
2017,08,08,01,04,18.10
2017,08,08,01,05,18.10
2017,08,08,01,06,18.10
2017,08,08,01,07,18.20
2017,08,08,01,08,18.20
2017,08,08,01,09,18.20
2017,08,08,01,10,18.20
2017,08,08,01,11,18.20
2017,08,08,01,12,18.20
2017,08,08,01,13,18.20
2017,08,08,01,14,18.20
2017,08,08,01,15,18.20
2017,08,08,01,16,18.10
2017,08,08,01,17,18.10
2017,08,08,01,18,18.10
2017,08,08,01,19,18.10
2017,08,08,01,20,18.10
2017,08,08,01,21,18.10
2017,08,08,01,22,18.10
2017,08,08,01,23,18.10
2017,08,08,01,24,18.10
2017,08,08,01,25,18.10
2017,08,08,01,26,18.10
2017,08,08,01,27,18.00
2017,08,08,01,28,18.00
2017,08,08,01,29,18.00
2017,08,08,01,30,18.00
2017,08,08,01,31,18.00
2017,08,08,01,32,17.90
2017,08,08,01,33,17.90
2017,08,08,01,34,17.90
2017,08,08,01,35,17.90
2017,08,08,01,36,17.90
2017,08,08,01,37,17.90
2017,08,08,01,38,17.90
2017,08,08,01,39,17.90
2017,08,08,01,40,17.90
2017,08,08,01,41,17.90
2017,08,08,01,42,17.90
2017,08,08,01,43,17.90
2017,08,08,01,44,17.80
2017,08,08,01,45,17.80
2017,08,08,01,46,17.80
2017,08,08,01,47,17.80
2017,08,08,01,48,17.80
2017,08,08,01,49,17.80
2017,08,08,01,50,17.80
2017,08,08,01,51,17.80
2017,08,08,01,52,17.80
2017,08,08,01,53,17.80
2017,08,08,01,54,17.80
2017,08,08,01,55,17.80
2017,08,08,01,56,17.80
2017,08,08,01,57,17.80
2017,08,08,01,58,17.80
2017,08,08,01,59,17.80
2017,08,08,02,00,17.90
2017,08,08,02,01,17.90
2017,08,08,02,02,17.90
2017,08,08,02,03,17.90
2017,08,08,02,04,17.90
2017,08,08,02,05,17.90
2017,08,08,02,06,17.80
2017,08,08,02,07,17.80
2017,08,08,02,08,17.80
2017,08,08,02,09,17.80
2017,08,08,02,10,17.80
2017,08,08,02,11,17.80
2017,08,08,02,12,17.80
2017,08,08,02,13,17.80
2017,08,08,02,14,17.80
2017,08,08,02,15,17.80
2017,08,08,02,16,17.70
2017,08,08,02,17,17.70
2017,08,08,02,18,17.70
2017,08,08,02,19,17.70
2017,08,08,02,20,17.70
2017,08,08,02,21,17.70
2017,08,08,02,22,17.70
2017,08,08,02,23,17.70
2017,08,08,02,24,17.60
2017,08,08,02,25,17.60
2017,08,08,02,26,17.60
2017,08,08,02,27,17.60
2017,08,08,02,28,17.60
2017,08,08,02,29,17.60
2017,08,08,02,30,17.50
2017,08,08,02,31,17.50
2017,08,08,02,32,17.50
2017,08,08,02,33,17.50
2017,08,08,02,34,17.40
2017,08,08,02,35,17.40
2017,08,08,02,36,17.40
2017,08,08,02,37,17.40
2017,08,08,02,38,17.40
2017,08,08,02,39,17.40
2017,08,08,02,40,17.40
2017,08,08,02,41,17.40
2017,08,08,02,42,17.40
2017,08,08,02,43,17.40
2017,08,08,02,44,17.30
2017,08,08,02,45,17.30
2017,08,08,02,46,17.30
2017,08,08,02,47,17.30
2017,08,08,02,48,17.30
2017,08,08,02,49,17.30
2017,08,08,02,50,17.30
2017,08,08,02,51,17.30
2017,08,08,02,52,17.30
2017,08,08,02,53,17.30
2017,08,08,02,54,17.30
2017,08,08,02,55,17.30
2017,08,08,02,56,17.30
2017,08,08,02,57,17.20
2017,08,08,02,58,17.20
2017,08,08,02,59,17.20
2017,08,08,03,00,17.20
2017,08,08,03,01,17.20
2017,08,08,03,02,17.20
2017,08,08,03,03,17.10
2017,08,08,03,04,17.10
2017,08,08,03,05,17.10
2017,08,08,03,06,17.10
2017,08,08,03,07,17.10
2017,08,08,03,08,17.10
2017,08,08,03,09,17.00
2017,08,08,03,10,17.00
2017,08,08,03,11,17.00
2017,08,08,03,12,17.00
2017,08,08,03,13,17.00
2017,08,08,03,14,17.00
2017,08,08,03,15,17.00
2017,08,08,03,16,17.00
2017,08,08,03,17,17.00
2017,08,08,03,18,17.00
2017,08,08,03,19,17.00
2017,08,08,03,20,17.00
2017,08,08,03,21,16.90
2017,08,08,03,22,16.90
2017,08,08,03,23,16.90
2017,08,08,03,24,16.90
2017,08,08,03,25,16.90
2017,08,08,03,26,16.90
2017,08,08,03,27,16.80
2017,08,08,03,28,16.80
2017,08,08,03,29,16.80
2017,08,08,03,30,16.80
2017,08,08,03,31,16.80
2017,08,08,03,32,16.70
2017,08,08,03,33,16.70
2017,08,08,03,34,16.70
2017,08,08,03,35,16.60
2017,08,08,03,36,16.60
2017,08,08,03,37,16.60
2017,08,08,03,38,16.50
2017,08,08,03,39,16.50
2017,08,08,03,40,16.50
2017,08,08,03,41,16.40
2017,08,08,03,42,16.40
2017,08,08,03,43,16.40
2017,08,08,03,44,16.40
2017,08,08,03,45,16.40
2017,08,08,03,46,16.40
2017,08,08,03,47,16.40
2017,08,08,03,48,16.40
2017,08,08,03,49,16.40
2017,08,08,03,50,16.40
2017,08,08,03,51,16.40
2017,08,08,03,52,16.50
2017,08,08,03,53,16.50
2017,08,08,03,54,16.50
2017,08,08,03,55,16.50
2017,08,08,03,56,16.50
2017,08,08,03,57,16.50
2017,08,08,03,58,16.50
2017,08,08,03,59,16.60
2017,08,08,04,00,16.60
2017,08,08,04,01,16.60
2017,08,08,04,02,16.60
2017,08,08,04,03,16.60
2017,08,08,04,04,16.60
2017,08,08,04,05,16.60
2017,08,08,04,06,16.60
2017,08,08,04,07,16.60
2017,08,08,04,08,16.60
2017,08,08,04,09,16.60
2017,08,08,04,10,16.60
2017,08,08,04,11,16.60
2017,08,08,04,12,16.60
2017,08,08,04,13,16.60
2017,08,08,04,14,16.70
2017,08,08,04,15,16.70
2017,08,08,04,16,16.70
2017,08,08,04,17,16.70
2017,08,08,04,18,16.70
2017,08,08,04,19,16.70
2017,08,08,04,20,16.70
2017,08,08,04,21,16.70
2017,08,08,04,22,16.70
2017,08,08,04,23,16.60
2017,08,08,04,24,16.60
2017,08,08,04,25,16.60
2017,08,08,04,26,16.60
2017,08,08,04,27,16.60
2017,08,08,04,28,16.60
2017,08,08,04,29,16.60
2017,08,08,04,30,16.50
2017,08,08,04,31,16.50
2017,08,08,04,32,16.50
2017,08,08,04,33,16.40
2017,08,08,04,34,16.40
2017,08,08,04,35,16.40
2017,08,08,04,36,16.30
2017,08,08,04,37,16.30
2017,08,08,04,38,16.30
2017,08,08,04,39,16.30
2017,08,08,04,40,16.30
2017,08,08,04,41,16.30
2017,08,08,04,42,16.30
2017,08,08,04,43,16.30
2017,08,08,04,44,16.30
2017,08,08,04,45,16.30
2017,08,08,04,46,16.30
2017,08,08,04,47,16.30
2017,08,08,04,48,16.30
2017,08,08,04,49,16.30
2017,08,08,04,50,16.30
2017,08,08,04,51,16.30
2017,08,08,04,52,16.30
2017,08,08,04,53,16.30
2017,08,08,04,54,16.30
2017,08,08,04,55,16.30
2017,08,08,04,56,16.30
2017,08,08,04,57,16.30
2017,08,08,04,58,16.30
2017,08,08,04,59,16.30
2017,08,08,05,00,16.30
2017,08,08,05,01,16.30
2017,08,08,05,02,16.30
2017,08,08,05,03,16.30
2017,08,08,05,04,16.20
2017,08,08,05,05,16.20
2017,08,08,05,06,16.20
2017,08,08,05,07,16.20
2017,08,08,05,08,16.20
2017,08,08,05,09,16.20
2017,08,08,05,10,16.20
2017,08,08,05,11,16.20
2017,08,08,05,12,16.20
2017,08,08,05,13,16.10
2017,08,08,05,14,16.10
2017,08,08,05,15,16.10
2017,08,08,05,16,16.10
2017,08,08,05,17,16.10
2017,08,08,05,18,16.10
2017,08,08,05,19,16.10
2017,08,08,05,20,16.10
2017,08,08,05,21,16.00
2017,08,08,05,22,16.00
2017,08,08,05,23,16.10
2017,08,08,05,24,16.10
2017,08,08,05,25,16.00
2017,08,08,05,26,16.00
2017,08,08,05,27,16.00
2017,08,08,05,28,16.00
2017,08,08,05,29,16.00
2017,08,08,05,30,15.90
2017,08,08,05,31,15.90
2017,08,08,05,32,15.90
2017,08,08,05,33,15.90
2017,08,08,05,34,15.90
2017,08,08,05,35,15.90
2017,08,08,05,36,15.90
2017,08,08,05,37,15.80
2017,08,08,05,38,15.80
2017,08,08,05,39,15.80
2017,08,08,05,40,15.80
2017,08,08,05,41,15.80
2017,08,08,05,42,15.80
2017,08,08,05,43,15.80
2017,08,08,05,44,15.80
2017,08,08,05,45,15.70
2017,08,08,05,46,15.70
2017,08,08,05,47,15.70
2017,08,08,05,48,15.70
2017,08,08,05,49,15.70
2017,08,08,05,50,15.70
2017,08,08,05,51,15.60
2017,08,08,05,52,15.60
2017,08,08,05,53,15.60
2017,08,08,05,54,15.60
2017,08,08,05,55,15.60
2017,08,08,05,56,15.60
2017,08,08,05,57,15.50
2017,08,08,05,58,15.50
2017,08,08,05,59,15.50
2017,08,08,06,00,15.50
2017,08,08,06,01,15.50
2017,08,08,06,02,15.50
2017,08,08,06,03,15.40
2017,08,08,06,04,15.40
2017,08,08,06,05,15.40
2017,08,08,06,06,15.40
2017,08,08,06,07,15.40
2017,08,08,06,08,15.40
2017,08,08,06,09,15.40
2017,08,08,06,10,15.40
2017,08,08,06,11,15.40
2017,08,08,06,12,15.30
2017,08,08,06,13,15.30
2017,08,08,06,14,15.30
2017,08,08,06,15,15.30
2017,08,08,06,16,15.30
2017,08,08,06,17,15.30
2017,08,08,06,18,15.30
2017,08,08,06,19,15.30
2017,08,08,06,20,15.30
2017,08,08,06,21,15.30
2017,08,08,06,22,15.30
2017,08,08,06,23,15.30
2017,08,08,06,24,15.30
2017,08,08,06,25,15.30
2017,08,08,06,26,15.30
2017,08,08,06,27,15.30
2017,08,08,06,28,15.30
2017,08,08,06,29,15.30
2017,08,08,06,30,15.30
2017,08,08,06,31,15.30
2017,08,08,06,32,15.30
2017,08,08,06,33,15.30
2017,08,08,06,34,15.30
2017,08,08,06,35,15.30
2017,08,08,06,36,15.30
2017,08,08,06,37,15.30
2017,08,08,06,38,15.30
2017,08,08,06,39,15.30
2017,08,08,06,40,15.30
2017,08,08,06,41,15.30
2017,08,08,06,42,15.30
2017,08,08,06,43,15.30
2017,08,08,06,44,15.30
2017,08,08,06,45,15.30
2017,08,08,06,46,15.30
2017,08,08,06,47,15.30
2017,08,08,06,48,15.40
2017,08,08,06,49,15.40
2017,08,08,06,50,15.40
2017,08,08,06,51,15.40
2017,08,08,06,52,15.40
2017,08,08,06,53,15.40
2017,08,08,06,54,15.40
2017,08,08,06,55,15.40
2017,08,08,06,56,15.40
2017,08,08,06,57,15.40
2017,08,08,06,58,15.40
2017,08,08,06,59,15.50
2017,08,08,07,00,15.50
2017,08,08,07,01,15.50
2017,08,08,07,02,15.50
2017,08,08,07,03,15.60
2017,08,08,07,04,15.60
2017,08,08,07,05,15.60
2017,08,08,07,06,15.60
2017,08,08,07,07,15.60
2017,08,08,07,08,15.60
2017,08,08,07,09,15.60
2017,08,08,07,10,15.60
2017,08,08,07,11,15.70
2017,08,08,07,12,15.70
2017,08,08,07,13,15.70
2017,08,08,07,14,15.70
2017,08,08,07,15,15.70
2017,08,08,07,16,15.70
2017,08,08,07,17,15.70
2017,08,08,07,18,15.70
2017,08,08,07,19,15.70
2017,08,08,07,20,15.70
2017,08,08,07,21,15.80
2017,08,08,07,22,15.80
2017,08,08,07,23,15.80
2017,08,08,07,24,15.80
2017,08,08,07,25,15.80
2017,08,08,07,26,15.90
2017,08,08,07,27,15.90
2017,08,08,07,28,15.90
2017,08,08,07,29,15.90
2017,08,08,07,30,16.00
2017,08,08,07,31,16.00
2017,08,08,07,32,16.10
2017,08,08,07,33,16.10
2017,08,08,07,34,16.10
2017,08,08,07,35,16.10
2017,08,08,07,36,16.10
2017,08,08,07,37,16.20
2017,08,08,07,38,16.20
2017,08,08,07,39,16.20
2017,08,08,07,40,16.20
2017,08,08,07,41,16.30
2017,08,08,07,42,16.30
2017,08,08,07,43,16.30
2017,08,08,07,44,16.30
2017,08,08,07,45,16.30
2017,08,08,07,46,16.40
2017,08,08,07,47,16.40
2017,08,08,07,48,16.40
2017,08,08,07,49,16.40
2017,08,08,07,50,16.50
2017,08,08,07,51,16.50
2017,08,08,07,52,16.60
2017,08,08,07,53,16.60
2017,08,08,07,54,16.60
2017,08,08,07,55,16.70
2017,08,08,07,56,16.70
2017,08,08,07,57,16.70
2017,08,08,07,58,16.80
2017,08,08,07,59,16.80
2017,08,08,08,00,16.80
2017,08,08,08,01,16.90
2017,08,08,08,02,16.90
2017,08,08,08,03,17.00
2017,08,08,08,04,17.00
2017,08,08,08,05,17.00
2017,08,08,08,06,17.10
2017,08,08,08,07,17.10
2017,08,08,08,08,17.20
2017,08,08,08,09,17.20
2017,08,08,08,10,17.30
2017,08,08,08,11,17.40
2017,08,08,08,12,17.50
2017,08,08,08,13,17.50
2017,08,08,08,14,17.60
2017,08,08,08,15,17.70
2017,08,08,08,16,17.70
2017,08,08,08,17,17.80
2017,08,08,08,18,17.90
2017,08,08,08,19,18.00
2017,08,08,08,20,18.10
2017,08,08,08,21,18.20
2017,08,08,08,22,18.30
2017,08,08,08,23,18.30
2017,08,08,08,24,18.40
2017,08,08,08,25,18.50
2017,08,08,08,26,18.60
2017,08,08,08,27,18.70
2017,08,08,08,28,18.80
2017,08,08,08,29,18.80
2017,08,08,08,30,18.90
2017,08,08,08,31,19.00
2017,08,08,08,32,19.10
2017,08,08,08,33,19.10
2017,08,08,08,34,19.20
2017,08,08,08,35,19.30
2017,08,08,08,36,19.40
2017,08,08,08,37,19.40
2017,08,08,08,38,19.50
2017,08,08,08,39,19.60
2017,08,08,08,40,19.70
2017,08,08,08,41,19.70
2017,08,08,08,42,19.80
2017,08,08,08,43,19.90
2017,08,08,08,44,20.00
2017,08,08,08,45,20.00
2017,08,08,08,46,20.10
2017,08,08,08,47,20.20
2017,08,08,08,48,20.30
2017,08,08,08,49,20.30
2017,08,08,08,50,20.40
2017,08,08,08,51,20.40
2017,08,08,08,52,20.50
2017,08,08,08,53,20.50
2017,08,08,08,54,20.60
2017,08,08,08,55,20.60
2017,08,08,08,56,20.60
2017,08,08,08,57,20.70
2017,08,08,08,58,20.70
2017,08,08,08,59,20.70
2017,08,08,09,00,20.70
2017,08,08,09,01,20.70
2017,08,08,09,02,20.70
2017,08,08,09,03,20.70
2017,08,08,09,04,20.70
2017,08,08,09,05,20.70
2017,08,08,09,06,20.60
2017,08,08,09,07,20.60
2017,08,08,09,08,20.60
2017,08,08,09,09,20.60
2017,08,08,09,10,20.60
2017,08,08,09,11,20.60
2017,08,08,09,12,20.60
2017,08,08,09,13,20.60
2017,08,08,09,14,20.60
2017,08,08,09,15,20.60
2017,08,08,09,16,20.60
2017,08,08,09,17,20.60
2017,08,08,09,18,20.60
2017,08,08,09,19,20.60
2017,08,08,09,20,20.60
2017,08,08,09,21,20.70
2017,08,08,09,22,20.70
2017,08,08,09,23,20.70
2017,08,08,09,24,20.80
2017,08,08,09,25,20.80
2017,08,08,09,26,20.80
2017,08,08,09,27,20.90
2017,08,08,09,28,20.90
2017,08,08,09,29,21.00
2017,08,08,09,30,21.00
2017,08,08,09,31,21.10
2017,08,08,09,32,21.10
2017,08,08,09,33,21.10
2017,08,08,09,34,21.10
2017,08,08,09,35,21.10
2017,08,08,09,36,21.20
2017,08,08,09,37,21.20
2017,08,08,09,38,21.20
2017,08,08,09,39,21.30
2017,08,08,09,40,21.30
2017,08,08,09,41,21.40
2017,08,08,09,42,21.40
2017,08,08,09,43,21.50
2017,08,08,09,44,21.50
2017,08,08,09,45,21.60
2017,08,08,09,46,21.60
2017,08,08,09,47,21.60
2017,08,08,09,48,21.70
2017,08,08,09,49,21.70
2017,08,08,09,50,21.80
2017,08,08,09,51,21.90
2017,08,08,09,52,21.90
2017,08,08,09,53,22.00
2017,08,08,09,54,22.10
2017,08,08,09,55,22.10
2017,08,08,09,56,22.10
2017,08,08,09,57,22.20
2017,08,08,09,58,22.20
2017,08,08,09,59,22.20
2017,08,08,10,00,22.20
2017,08,08,10,01,22.30
2017,08,08,10,02,22.30
2017,08,08,10,03,22.30
2017,08,08,10,04,22.40
2017,08,08,10,05,22.40
2017,08,08,10,06,22.40
2017,08,08,10,07,22.40
2017,08,08,10,08,22.40
2017,08,08,10,09,22.40
2017,08,08,10,10,22.40
2017,08,08,10,11,22.40
2017,08,08,10,12,22.40
2017,08,08,10,13,22.40
2017,08,08,10,14,22.40
2017,08,08,10,15,22.50
2017,08,08,10,16,22.50
2017,08,08,10,17,22.50
2017,08,08,10,18,22.60
2017,08,08,10,19,22.60
2017,08,08,10,20,22.70
2017,08,08,10,21,22.70
2017,08,08,10,22,22.80
2017,08,08,10,23,22.80
2017,08,08,10,24,22.90
2017,08,08,10,25,22.90
2017,08,08,10,26,23.00
2017,08,08,10,27,23.00
2017,08,08,10,28,23.00
2017,08,08,10,29,23.10
2017,08,08,10,30,23.10
2017,08,08,10,31,23.10
2017,08,08,10,32,23.10
2017,08,08,10,33,23.10
2017,08,08,10,34,23.10
2017,08,08,10,35,23.10
2017,08,08,10,36,23.10
2017,08,08,10,37,23.10
2017,08,08,10,38,23.10
2017,08,08,10,39,23.10
2017,08,08,10,40,23.10
2017,08,08,10,41,23.20
2017,08,08,10,42,23.20
2017,08,08,10,43,23.20
2017,08,08,10,44,23.20
2017,08,08,10,45,23.30
2017,08,08,10,46,23.30
2017,08,08,10,47,23.30
2017,08,08,10,48,23.30
2017,08,08,10,49,23.40
2017,08,08,10,50,23.40
2017,08,08,10,51,23.40
2017,08,08,10,52,23.40
2017,08,08,10,53,23.50
2017,08,08,10,54,23.50
2017,08,08,10,55,23.50
2017,08,08,10,56,23.60
2017,08,08,10,57,23.60
2017,08,08,10,58,23.60
2017,08,08,10,59,23.60
2017,08,08,11,00,23.60
2017,08,08,11,01,23.70
2017,08,08,11,02,23.70
2017,08,08,11,03,23.70
2017,08,08,11,04,23.70
2017,08,08,11,05,23.70
2017,08,08,11,06,23.70
2017,08,08,11,07,23.70
2017,08,08,11,08,23.70
2017,08,08,11,09,23.70
2017,08,08,11,10,23.70
2017,08,08,11,11,23.70
2017,08,08,11,12,23.70
2017,08,08,11,13,23.80
2017,08,08,11,14,23.80
2017,08,08,11,15,23.80
2017,08,08,11,16,23.80
2017,08,08,11,17,23.90
2017,08,08,11,18,23.90
2017,08,08,11,19,23.90
2017,08,08,11,20,23.90
2017,08,08,11,21,24.00
2017,08,08,11,22,24.00
2017,08,08,11,23,23.90
2017,08,08,11,24,23.90
2017,08,08,11,25,23.90
2017,08,08,11,26,23.90
2017,08,08,11,27,23.90
2017,08,08,11,28,23.90
2017,08,08,11,29,23.90
2017,08,08,11,30,23.90
2017,08,08,11,31,23.90
2017,08,08,11,32,23.90
2017,08,08,11,33,23.90
2017,08,08,11,34,24.00
2017,08,08,11,35,24.00
2017,08,08,11,36,24.00
2017,08,08,11,37,24.00
2017,08,08,11,38,24.10
2017,08,08,11,39,24.10
2017,08,08,11,40,24.10
2017,08,08,11,41,24.20
2017,08,08,11,42,24.20
2017,08,08,11,43,24.20
2017,08,08,11,44,24.30
2017,08,08,11,45,24.30
2017,08,08,11,46,24.30
2017,08,08,11,47,24.40
2017,08,08,11,48,24.40
2017,08,08,11,49,24.40
2017,08,08,11,50,24.40
2017,08,08,11,51,24.50
2017,08,08,11,52,24.50
2017,08,08,11,53,24.60
2017,08,08,11,54,24.60
2017,08,08,11,55,24.70
2017,08,08,11,56,24.70
2017,08,08,11,57,24.70
2017,08,08,11,58,24.80
2017,08,08,11,59,24.80
2017,08,08,12,00,24.80
2017,08,08,12,01,24.80
2017,08,08,12,02,24.80
2017,08,08,12,03,24.80
2017,08,08,12,04,24.80
2017,08,08,12,05,24.90
2017,08,08,12,06,24.90
2017,08,08,12,07,24.90
2017,08,08,12,08,24.90
2017,08,08,12,09,24.90
2017,08,08,12,10,24.90
2017,08,08,12,11,25.00
2017,08,08,12,12,25.00
2017,08,08,12,13,25.00
2017,08,08,12,14,25.10
2017,08,08,12,15,25.10
2017,08,08,12,16,25.10
2017,08,08,12,17,25.10
2017,08,08,12,18,25.20
2017,08,08,12,19,25.20
2017,08,08,12,20,25.30
2017,08,08,12,21,25.30
2017,08,08,12,22,25.40
2017,08,08,12,23,25.40
2017,08,08,12,24,25.40
2017,08,08,12,25,25.40
2017,08,08,12,26,25.40
2017,08,08,12,27,25.40
2017,08,08,12,28,25.40
2017,08,08,12,29,25.40
2017,08,08,12,30,25.40
2017,08,08,12,31,25.40
2017,08,08,12,32,25.40
2017,08,08,12,33,25.40
2017,08,08,12,34,25.30
2017,08,08,12,35,25.30
2017,08,08,12,36,25.30
2017,08,08,12,37,25.30
2017,08,08,12,38,25.30
2017,08,08,12,39,25.30
2017,08,08,12,40,25.30
2017,08,08,12,41,25.40
2017,08,08,12,42,25.40
2017,08,08,12,43,25.50
2017,08,08,12,44,25.60
2017,08,08,12,45,25.70
2017,08,08,12,46,25.70
2017,08,08,12,47,25.80
2017,08,08,12,48,25.80
2017,08,08,12,49,25.80
2017,08,08,12,50,25.90
2017,08,08,12,51,25.90
2017,08,08,12,52,26.00
2017,08,08,12,53,26.00
2017,08,08,12,54,26.10
2017,08,08,12,55,26.10
2017,08,08,12,56,26.10
2017,08,08,12,57,26.10
2017,08,08,12,58,26.10
2017,08,08,12,59,26.10
2017,08,08,13,00,26.20
2017,08,08,13,01,26.20
2017,08,08,13,02,26.20
2017,08,08,13,03,26.20
2017,08,08,13,04,26.20
2017,08,08,13,05,26.20
2017,08,08,13,06,26.20
2017,08,08,13,07,26.20
2017,08,08,13,08,26.10
2017,08,08,13,09,26.10
2017,08,08,13,10,26.00
2017,08,08,13,11,26.00
2017,08,08,13,12,26.00
2017,08,08,13,13,26.10
2017,08,08,13,14,26.10
2017,08,08,13,15,26.10
2017,08,08,13,16,26.20
2017,08,08,13,17,26.20
2017,08,08,13,18,26.20
2017,08,08,13,19,26.20
2017,08,08,13,20,26.30
2017,08,08,13,21,26.30
2017,08,08,13,22,26.30
2017,08,08,13,23,26.30
2017,08,08,13,24,26.30
2017,08,08,13,25,26.30
2017,08,08,13,26,26.30
2017,08,08,13,27,26.40
2017,08,08,13,28,26.40
2017,08,08,13,29,26.40
2017,08,08,13,30,26.40
2017,08,08,13,31,26.40
2017,08,08,13,32,26.50
2017,08,08,13,33,26.50
2017,08,08,13,34,26.60
2017,08,08,13,35,26.60
2017,08,08,13,36,26.60
2017,08,08,13,37,26.50
2017,08,08,13,38,26.50
2017,08,08,13,39,26.50
2017,08,08,13,40,26.60
2017,08,08,13,41,26.60
2017,08,08,13,42,26.60
2017,08,08,13,43,26.70
2017,08,08,13,44,26.70
2017,08,08,13,45,26.70
2017,08,08,13,46,26.70
2017,08,08,13,47,26.70
2017,08,08,13,48,26.80
2017,08,08,13,49,26.80
2017,08,08,13,50,26.80
2017,08,08,13,51,26.80
2017,08,08,13,52,26.80
2017,08,08,13,53,26.80
2017,08,08,13,54,26.80
2017,08,08,13,55,26.80
2017,08,08,13,56,26.90
2017,08,08,13,57,26.90
2017,08,08,13,58,26.90
2017,08,08,13,59,26.90
2017,08,08,14,00,26.90
2017,08,08,14,01,26.90
2017,08,08,14,02,26.90
2017,08,08,14,03,26.90
2017,08,08,14,04,27.00
2017,08,08,14,05,27.00
2017,08,08,14,06,27.10
2017,08,08,14,07,27.10
2017,08,08,14,08,27.10
2017,08,08,14,09,27.10
2017,08,08,14,10,27.10
2017,08,08,14,11,27.10
2017,08,08,14,12,27.20
2017,08,08,14,13,27.10
2017,08,08,14,14,27.10
2017,08,08,14,15,27.10
2017,08,08,14,16,27.00
2017,08,08,14,17,26.90
2017,08,08,14,18,26.90
2017,08,08,14,19,26.90
2017,08,08,14,20,26.80
2017,08,08,14,21,26.80
2017,08,08,14,22,26.80
2017,08,08,14,23,26.80
2017,08,08,14,24,26.90
2017,08,08,14,25,26.90
2017,08,08,14,26,26.90
2017,08,08,14,27,26.90
2017,08,08,14,28,26.90
2017,08,08,14,29,26.90
2017,08,08,14,30,26.90
2017,08,08,14,31,26.90
2017,08,08,14,32,26.90
2017,08,08,14,33,26.80
2017,08,08,14,34,26.80
2017,08,08,14,35,26.80
2017,08,08,14,36,26.80
2017,08,08,14,37,26.80
2017,08,08,14,38,26.90
2017,08,08,14,39,26.80
2017,08,08,14,40,26.80
2017,08,08,14,41,26.80
2017,08,08,14,42,26.90
2017,08,08,14,43,26.90
2017,08,08,14,44,26.90
2017,08,08,14,45,27.00
2017,08,08,14,46,27.00
2017,08,08,14,47,27.10
2017,08,08,14,48,27.10
2017,08,08,14,49,27.10
2017,08,08,14,50,27.10
2017,08,08,14,51,27.20
2017,08,08,14,52,27.20
2017,08,08,14,53,27.20
2017,08,08,14,54,27.20
2017,08,08,14,55,27.20
2017,08,08,14,56,27.20
2017,08,08,14,57,27.20
2017,08,08,14,58,27.30
2017,08,08,14,59,27.30
2017,08,08,15,00,27.30
2017,08,08,15,01,27.30
2017,08,08,15,02,27.30
2017,08,08,15,03,27.30
2017,08,08,15,04,27.30
2017,08,08,15,05,27.30
2017,08,08,15,06,27.40
2017,08,08,15,07,27.40
2017,08,08,15,08,27.40
2017,08,08,15,09,27.50
2017,08,08,15,10,27.50
2017,08,08,15,11,27.50
2017,08,08,15,12,27.60
2017,08,08,15,13,27.60
2017,08,08,15,14,27.60
2017,08,08,15,15,27.60
2017,08,08,15,16,27.60
2017,08,08,15,17,27.50
2017,08,08,15,18,27.50
2017,08,08,15,19,27.50
2017,08,08,15,20,27.50
2017,08,08,15,21,27.50
2017,08,08,15,22,27.50
2017,08,08,15,23,27.60
2017,08,08,15,24,27.60
2017,08,08,15,25,27.50
2017,08,08,15,26,27.50
2017,08,08,15,27,27.50
2017,08,08,15,28,27.50
2017,08,08,15,29,27.50
2017,08,08,15,30,27.50
2017,08,08,15,31,27.50
2017,08,08,15,32,27.50
2017,08,08,15,33,27.50
2017,08,08,15,34,27.50
2017,08,08,15,35,27.50
2017,08,08,15,36,27.40
2017,08,08,15,37,27.40
2017,08,08,15,38,27.40
2017,08,08,15,39,27.50
2017,08,08,15,40,27.50
2017,08,08,15,41,27.50
2017,08,08,15,42,27.50
2017,08,08,15,43,27.50
2017,08,08,15,44,27.50
2017,08,08,15,45,27.50
2017,08,08,15,46,27.50
2017,08,08,15,47,27.50
2017,08,08,15,48,27.50
2017,08,08,15,49,27.50
2017,08,08,15,50,27.50
2017,08,08,15,51,27.50
2017,08,08,15,52,27.50
2017,08,08,15,53,27.50
2017,08,08,15,54,27.50
2017,08,08,15,55,27.50
2017,08,08,15,56,27.50
2017,08,08,15,57,27.50
2017,08,08,15,58,27.50
2017,08,08,15,59,27.50
2017,08,08,16,00,27.50
2017,08,08,16,01,27.50
2017,08,08,16,02,27.50
2017,08,08,16,03,27.50
2017,08,08,16,04,27.50
2017,08,08,16,05,27.50
2017,08,08,16,06,27.50
2017,08,08,16,07,27.50
2017,08,08,16,08,27.40
2017,08,08,16,09,27.40
2017,08,08,16,10,27.40
2017,08,08,16,11,27.40
2017,08,08,16,12,27.40
2017,08,08,16,13,27.40
2017,08,08,16,14,27.40
2017,08,08,16,15,27.40
2017,08,08,16,16,27.40
2017,08,08,16,17,27.40
2017,08,08,16,18,27.40
2017,08,08,16,19,27.40
2017,08,08,16,20,27.40
2017,08,08,16,21,27.40
2017,08,08,16,22,27.40
2017,08,08,16,23,27.40
2017,08,08,16,24,27.40
2017,08,08,16,25,27.40
2017,08,08,16,26,27.40
2017,08,08,16,27,27.40
2017,08,08,16,28,27.40
2017,08,08,16,29,27.40
2017,08,08,16,30,27.40
2017,08,08,16,31,27.40
2017,08,08,16,32,27.40
2017,08,08,16,33,27.40
2017,08,08,16,34,27.40
2017,08,08,16,35,27.30
2017,08,08,16,36,27.30
2017,08,08,16,37,27.30
2017,08,08,16,38,27.30
2017,08,08,16,39,27.30
2017,08,08,16,40,27.20
2017,08,08,16,41,27.20
2017,08,08,16,42,27.20
2017,08,08,16,43,27.20
2017,08,08,16,44,27.20
2017,08,08,16,45,27.10
2017,08,08,16,46,27.10
2017,08,08,16,47,27.10
2017,08,08,16,48,27.10
2017,08,08,16,49,27.10
2017,08,08,16,50,27.10
2017,08,08,16,51,27.10
2017,08,08,16,52,27.00
2017,08,08,16,53,27.00
2017,08,08,16,54,27.00
2017,08,08,16,55,26.90
2017,08,08,16,56,26.90
2017,08,08,16,57,26.90
2017,08,08,16,58,26.90
2017,08,08,16,59,26.90
2017,08,08,17,00,26.90
2017,08,08,17,01,26.90
2017,08,08,17,02,27.00
2017,08,08,17,03,27.00
2017,08,08,17,04,27.00
2017,08,08,17,05,27.00
2017,08,08,17,06,27.00
2017,08,08,17,07,27.00
2017,08,08,17,08,26.90
2017,08,08,17,09,26.90
2017,08,08,17,10,26.90
2017,08,08,17,11,26.90
2017,08,08,17,12,26.80
2017,08,08,17,13,26.80
2017,08,08,17,14,26.90
2017,08,08,17,15,26.90
2017,08,08,17,16,26.90
2017,08,08,17,17,26.90
2017,08,08,17,18,26.90
2017,08,08,17,19,26.90